San Carlos, CA

1:08 PM PST on February 25, 2017 (GMT -0800)
San Carlos

Weather History for KSQL - July, 2012

Change the Weather History Date:

Wednesday, July 4, 2012

  Actual Average Record
Temperature  
Mean Temperature 64 °F -  
Max Temperature 73 °F 81 °F 101 °F (1973)
Min Temperature 55 °F 53 °F 45 °F (1949)
Degree Days  
Heating Degree Days 1    
Growing Degree Days 14 (Base 50)    
Moisture  
Dew Point 51 °F    
Average Humidity 72    
Maximum Humidity 82    
Minimum Humidity 50    
Precipitation  
Precipitation 0.00 in - - ()
Sea Level Pressure  
Sea Level Pressure 29.85 in    
Wind  
Wind Speed 4 mph (West)    
Max Wind Speed 13 mph    
Max Gust Speed -    
Visibility 10 miles    
Events      
Averages and records for this station are not official NWS values.
T = Trace of Precipitation, MM = Missing Value Source: NWS Daily Summary

Daily Weather History Graph

Daily Weather History Graph

Search for Another Location

Airport or City:

Trip Planner

Search our weather history database for the weather conditions in past years. The results will help you decide how hot, cold, wet, or windy it might be!

Date:

Astronomy

Jul. 04, 2012 Rise Set
Actual Time 5:53 AM PDT 8:33 PM PDT
Civil Twilight 5:22 AM PDT 9:04 PM PDT
Nautical Twilight 4:43 AM PDT 9:42 PM PDT
Astronomical Twilight 4:00 AM PDT 10:25 PM PDT
Moon 9:18 PM PDT (7/4) 7:00 AM PDT (7/4)
Length of Visible Light 15h 41m
Length of Day
14h 40m
Full, 99% of the Moon is Illuminated
Jul 4
Full
Jul 10
Last Quarter
Jul 18
New
Jul 26
First Quarter
Aug 1
Full

Hourly Weather History & Observations

Time (PDT) Temp. Dew Point Humidity Pressure Visibility Wind Dir Wind Speed Gust Speed Precip Events Conditions
12:15 AM 59.0 °F 51.8 °F 77% 29.84 in 10.0 mi SSW 5.8 mph - N/A   Clear
12:35 AM 59.0 °F 51.8 °F 77% 29.84 in 10.0 mi SSW 4.6 mph - N/A   Clear
12:55 AM 59.0 °F 51.8 °F 77% 29.84 in 10.0 mi SSW 4.6 mph - N/A   Clear
1:15 AM 59.0 °F 51.8 °F 77% 29.84 in 10.0 mi SSW 4.6 mph - N/A   Clear
1:35 AM 59.0 °F 51.8 °F 77% 29.83 in 10.0 mi SSW 4.6 mph - N/A   Clear
1:55 AM 57.2 °F 50.0 °F 77% 29.83 in 10.0 mi NW 3.5 mph - N/A   Scattered Clouds
2:15 AM 57.2 °F 50.0 °F 77% 29.83 in 10.0 mi NNW 3.5 mph - N/A   Mostly Cloudy
2:35 AM 57.2 °F 50.0 °F 77% 29.83 in 10.0 mi NW 3.5 mph - N/A   Mostly Cloudy
2:55 AM 57.2 °F 50.0 °F 77% 29.83 in 10.0 mi NW 3.5 mph - N/A   Overcast
3:15 AM 55.4 °F 50.0 °F 82% 29.83 in 10.0 mi Calm Calm - N/A   Mostly Cloudy
3:35 AM 55.4 °F 50.0 °F 82% 29.83 in 10.0 mi Calm Calm - N/A   Mostly Cloudy
3:55 AM 55.4 °F 50.0 °F 82% 29.83 in 10.0 mi Calm Calm - N/A   Overcast
4:15 AM 55.4 °F 50.0 °F 82% 29.83 in 10.0 mi Calm Calm - N/A   Mostly Cloudy
4:35 AM 55.4 °F 50.0 °F 82% 29.83 in 10.0 mi Calm Calm - N/A   Overcast
4:55 AM 55.4 °F 50.0 °F 82% 29.83 in 10.0 mi Calm Calm - N/A   Mostly Cloudy
5:15 AM 55.4 °F 50.0 °F 82% 29.83 in 10.0 mi Calm Calm - N/A   Mostly Cloudy
5:35 AM 55.4 °F 50.0 °F 82% 29.83 in 10.0 mi Calm Calm - N/A   Mostly Cloudy
5:55 AM 55.4 °F 50.0 °F 82% 29.84 in 10.0 mi WNW 3.5 mph - N/A   Mostly Cloudy
6:15 AM 55.4 °F 50.0 °F 82% 29.84 in 10.0 mi Calm Calm - N/A   Mostly Cloudy
6:35 AM 55.4 °F 50.0 °F 82% 29.84 in 10.0 mi Calm Calm - N/A   Mostly Cloudy
6:47 AM 57.2 °F 50.0 °F 77% 29.85 in 10.0 mi Calm Calm - N/A   Partly Cloudy
7:47 AM 60.8 °F 53.6 °F 77% 29.85 in 10.0 mi Calm Calm - N/A   Partly Cloudy
8:47 AM 62.6 °F 53.6 °F 72% 29.86 in 10.0 mi NNW 5.8 mph - N/A   Partly Cloudy
10:53 AM 68.0 °F 53.6 °F 60% 29.86 in 10.0 mi WNW 6.9 mph - N/A   Clear
11:47 AM 68.0 °F 53.6 °F 60% 29.86 in 10.0 mi West 9.2 mph - N/A   Clear
12:47 PM 69.8 °F 53.6 °F 56% 29.86 in 10.0 mi West 9.2 mph - N/A   Clear
1:51 PM 71.6 °F 53.6 °F 53% 29.84 in 10.0 mi West 11.5 mph - N/A   Clear
2:47 PM 73.4 °F 53.6 °F 50% 29.84 in 10.0 mi WNW 11.5 mph - N/A   Clear
3:52 PM 71.6 °F 51.8 °F 50% 29.83 in 10.0 mi West 12.7 mph - N/A   Clear
4:51 PM 71.6 °F 51.8 °F 50% 29.82 in 10.0 mi WNW 11.5 mph - N/A   Clear
5:47 PM 71.6 °F 51.8 °F 50% 29.82 in 10.0 mi West 8.1 mph - N/A   Partly Cloudy
6:47 PM 68.0 °F 51.8 °F 56% 29.82 in 10.0 mi West 8.1 mph - N/A   Partly Cloudy
7:49 PM 64.4 °F 50.0 °F 59% 29.85 in 10.0 mi West 8.1 mph - N/A   Partly Cloudy
8:47 PM 59.0 °F 50.0 °F 72% 29.86 in 10.0 mi WNW 6.9 mph - N/A   Partly Cloudy
9:35 PM 57.2 °F 48.2 °F 72% 29.88 in 10.0 mi West 5.8 mph - N/A   Clear
9:55 PM 59.0 °F 48.2 °F 67% 29.88 in 10.0 mi West 3.5 mph - N/A   Clear
10:15 PM 57.2 °F 48.2 °F 72% 29.89 in 10.0 mi WSW 5.8 mph - N/A   Clear
10:35 PM 57.2 °F 48.2 °F 72% 29.90 in 10.0 mi WSW 4.6 mph - N/A   Clear
10:55 PM 57.2 °F 48.2 °F 72% 29.90 in 10.0 mi West 5.8 mph - N/A   Partly Cloudy
11:15 PM 57.2 °F 48.2 °F 72% 29.90 in 10.0 mi West 5.8 mph - N/A   Scattered Clouds
11:35 PM 57.2 °F 48.2 °F 72% 29.91 in 10.0 mi Calm Calm - N/A   Overcast